Kyiv, Ukraine

12:12 AM EET on December 06, 2019 (GMT +0200)
Zhuliany

Weather History for UKKK - November, 2019

Change the Weather History Date:

Thursday, November 14, 2019

  Actual Average (UKBB) Record (UKBB)
Temperature  
Mean Temperature 44 °F -  
Max Temperature 47 °F 39 °F 69 °F (2010)
Min Temperature 40 °F 30 °F 17 °F (2007)
Degree Days  
Heating Degree Days 22    
Moisture  
Dew Point 42 °F    
Average Humidity 90    
Maximum Humidity 100    
Minimum Humidity 76    
Precipitation  
Precipitation 0.00 in 0.07 in - ()
Sea Level Pressure  
Sea Level Pressure 30.13 in    
Wind  
Wind Speed 8 mph ()    
Max Wind Speed 13 mph    
Max Gust Speed 20 mph    
Visibility 4.2 miles    
Events Fog    
Averages and records for this station are not official NWS values.
T = Trace of Precipitation, MM = Missing Value Source: Averaged Metar Reports

Daily Weather History Graph

Daily Weather History Graph

Search for Another Location

Airport or City:

Astronomy

Nov. 14, 2019 Rise Set
Actual Time 7:09 AM EET 4:14 PM EET
Civil Twilight 6:34 AM EET 4:50 PM EET
Nautical Twilight 5:54 AM EET 5:29 PM EET
Astronomical Twilight 5:16 AM EET 6:08 PM EET
Moon 5:38 PM EET (11/14) 8:50 AM EET (11/14)
Length of Visible Light 10h 16m
Length of Day
9h 04m
Waning Gibbous, 96% of the Moon is Illuminated
Nov 14
Waning Gibbous
Nov 19
Last Quarter
Nov 26
New
Dec 4
First Quarter
Dec 12
Full

Hourly Weather History & Observations

Time (EET) Temp. Windchill Dew Point Humidity Pressure Visibility Wind Dir Wind Speed Gust Speed Precip Events Conditions
12:00 AM 46.4 °F 41.2 °F 44.6 °F 93% 30.09 in 3.7 mi ESE 11.2 mph - N/A   Unknown
12:30 AM 46.4 °F 42.0 °F 44.6 °F 93% 30.09 in 3.7 mi ESE 8.9 mph - N/A   Unknown
1:00 AM 44.6 °F 40.8 °F 44.6 °F 100% 30.09 in 3.1 mi ESE 6.7 mph - N/A   Scattered Clouds
1:30 AM 44.6 °F 40.8 °F 44.6 °F 100% 30.09 in 3.1 mi SE 6.7 mph - N/A   Scattered Clouds
2:00 AM 44 °F - 43 °F 94% 30.14 in 1 mi South 4.5 mph - -   Mist
2:00 AM 44.6 °F 40.8 °F 44.6 °F 100% 30.09 in 3.1 mi SE 6.7 mph - N/A   Scattered Clouds
2:30 AM 44.6 °F 40.8 °F 44.6 °F 100% 30.12 in - SE 6.7 mph - N/A   Scattered Clouds
3:00 AM 44.6 °F 40.8 °F 42.8 °F 93% 30.09 in 3.1 mi SE 6.7 mph - N/A   Scattered Clouds
3:30 AM 44.6 °F 39.8 °F 42.8 °F 93% 30.09 in 3.7 mi SE 8.9 mph - N/A   Scattered Clouds
4:00 AM 42.8 °F 38.7 °F 42.8 °F 100% 30.09 in 3.1 mi SE 6.7 mph - N/A   Scattered Clouds
4:30 AM 42.8 °F 36.7 °F 41.0 °F 93% 30.09 in 3.1 mi SE 11.2 mph - N/A   Scattered Clouds
4:37 AM 42.8 °F 37.6 °F 41.0 °F 93% 30.12 in - SE 8.9 mph - N/A   Scattered Clouds
5:00 AM 43 °F - 42 °F 97% 30.14 in 1 mi South 8.9 mph - - Fog Heavy Fog
5:18 AM 42.8 °F 37.6 °F 41.0 °F 93% 30.12 in - SE 8.9 mph - N/A   Mostly Cloudy
5:30 AM 42.8 °F 37.6 °F 41.0 °F 93% 30.12 in - SE 8.9 mph 20.1 mph N/A   Mostly Cloudy
6:00 AM 42.8 °F 37.6 °F 41.0 °F 93% 30.12 in - SE 8.9 mph - N/A   Mostly Cloudy
6:30 AM 42.8 °F 37.6 °F 41.0 °F 93% 30.12 in 3.1 mi SE 8.9 mph - N/A   Mostly Cloudy
6:52 AM 42.8 °F 36.7 °F 41.0 °F 93% 30.12 in - SE 11.2 mph - N/A   Mostly Cloudy
7:00 AM 42.8 °F 36.7 °F 41.0 °F 93% 30.12 in - SE 11.2 mph - N/A   Mostly Cloudy
7:30 AM 44.6 °F 38.9 °F 42.8 °F 93% 30.12 in - SE 11.2 mph - N/A   Overcast
7:52 AM 44.6 °F 39.8 °F 42.8 °F 93% 30.15 in 3.1 mi SE 8.9 mph - N/A   Overcast
8:00 AM 44 °F - 42 °F 92% 30.17 in 2 mi South 8.9 mph - -   Mist
8:00 AM 44.6 °F 38.9 °F 42.8 °F 93% 30.15 in 3.7 mi SE 11.2 mph - N/A   Overcast
8:30 AM 44.6 °F 39.8 °F 42.8 °F 93% 30.15 in 3.7 mi ESE 8.9 mph - N/A   Overcast
9:00 AM 44.6 °F 39.8 °F 42.8 °F 93% 30.15 in 3.7 mi SE 8.9 mph - N/A   Overcast
9:30 AM 46.4 °F 42.0 °F 42.8 °F 87% 30.15 in 3.1 mi SE 8.9 mph 20.1 mph N/A   Overcast
10:00 AM 46.4 °F 41.2 °F 42.8 °F 87% 30.15 in 3.1 mi ESE 11.2 mph - N/A   Mostly Cloudy
10:30 AM 46.4 °F 42.0 °F 42.8 °F 87% 30.15 in 3.7 mi ESE 8.9 mph - N/A   Mostly Cloudy
11:00 AM 46 °F - 42 °F 82% 30.18 in 2 mi South 8.9 mph - -   Mist
11:00 AM 46.4 °F 40.5 °F 42.8 °F 87% 30.15 in 4.3 mi SE 13.4 mph - N/A   Mostly Cloudy
11:30 AM 46.4 °F 41.2 °F 42.8 °F 87% 30.15 in 3.7 mi ESE 11.2 mph - N/A   Mostly Cloudy
12:00 PM 46.4 °F 41.2 °F 42.8 °F 87% 30.15 in 3.7 mi ESE 11.2 mph - N/A   Mostly Cloudy
12:30 PM 46.4 °F 41.2 °F 42.8 °F 87% 30.15 in 4.3 mi East 11.2 mph - N/A   Mostly Cloudy
1:00 PM 46.4 °F 40.5 °F 42.8 °F 87% 30.15 in 5.6 mi ESE 13.4 mph - N/A   Mostly Cloudy
1:30 PM 46.4 °F 40.5 °F 41.0 °F 81% 30.12 in 5.6 mi East 13.4 mph - N/A   Mostly Cloudy
2:00 PM 46 °F - 41 °F 76% 30.16 in 2 mi SSE 6.7 mph - -   Mist
2:00 PM 46.4 °F 41.2 °F 41.0 °F 81% 30.12 in 6.2 mi ESE 11.2 mph - N/A   Mostly Cloudy
2:30 PM 46.4 °F 42.0 °F 42.8 °F 87% 30.12 in 6.2 mi ESE 8.9 mph - N/A   Mostly Cloudy
3:00 PM 46.4 °F 41.2 °F 42.8 °F 87% 30.12 in 6.2 mi ESE 11.2 mph - N/A   Mostly Cloudy
3:30 PM 46.4 °F 42.0 °F 41.0 °F 81% 30.12 in 6.2 mi ESE 8.9 mph - N/A   Mostly Cloudy
4:00 PM 46.4 °F 43.0 °F 41.0 °F 81% 30.12 in - ESE 6.7 mph - N/A   Clear
4:30 PM 44.6 °F 42.3 °F 41.0 °F 87% 30.12 in - ESE 4.5 mph - N/A   Clear
5:00 PM 44 °F - 40 °F 82% 30.14 in 6 mi SSE 2.2 mph - -  
5:00 PM 44.6 °F 40.8 °F 42.8 °F 93% 30.12 in - ESE 6.7 mph - N/A   Clear
5:30 PM 44.6 °F 42.3 °F 41.0 °F 87% 30.12 in - ESE 4.5 mph - N/A   Clear
6:00 PM 44.6 °F 40.8 °F 41.0 °F 87% 30.12 in 5.6 mi ESE 6.7 mph - N/A   Unknown
6:30 PM 44.6 °F 40.8 °F 41.0 °F 87% 30.12 in 5.6 mi ESE 6.7 mph - N/A   Unknown
7:00 PM 44.6 °F 40.8 °F 41.0 °F 87% 30.12 in 5.6 mi ESE 6.7 mph - N/A   Unknown
7:30 PM 42.8 °F 40.2 °F 41.0 °F 93% 30.12 in 4.3 mi ESE 4.5 mph - N/A   Unknown
8:00 PM 40 °F - 39 °F 96% 30.16 in 2 mi South 2.2 mph - -   Mist
8:00 PM 42.8 °F 38.7 °F 41.0 °F 93% 30.12 in 4.3 mi ESE 6.7 mph - N/A   Unknown
8:30 PM 42.8 °F 38.7 °F 41.0 °F 93% 30.12 in 5.6 mi ESE 6.7 mph - N/A   Unknown
9:00 PM 42.8 °F 38.7 °F 39.2 °F 87% 30.15 in 5.6 mi ESE 6.7 mph - N/A   Unknown
9:30 PM 42.8 °F 38.7 °F 39.2 °F 87% 30.15 in 5.6 mi ESE 6.7 mph - N/A   Mostly Cloudy
10:00 PM 42.8 °F 38.7 °F 39.2 °F 87% 30.15 in 6.2 mi ESE 6.7 mph - N/A   Mostly Cloudy
10:30 PM 41.0 °F 35.4 °F 37.4 °F 87% 30.15 in 6.2 mi ESE 8.9 mph - N/A   Mostly Cloudy
11:00 PM 41.0 °F 36.5 °F 37.4 °F 87% 30.15 in 6.2 mi ESE 6.7 mph - N/A   Mostly Cloudy
11:30 PM 41.0 °F 35.4 °F 37.4 °F 87% 30.15 in 6.2 mi ESE 8.9 mph - N/A   Overcast